Location: El Mouella
(16.4949°N, 9.1594°W)
Time: 17:36:29
(UTC+00:00)

STARLINK-1178 - Pass Details

Date: 02 June 2020
Orbit: 549 x 550 km, 53.0° (Epoch: 04 July)

Event Time Altitude Azimuth Distance (km) Brightness Sun altitude
Rises 19:48:11 0° 332° (NNW) 2,714 8.1 -9.9°
Reaches altitude 10° 19:50:29 10° 339° (NNW) 1,820 7.0 -10.4°
Maximum altitude 19:54:27 44° 52° (NE) 764 4.1 -11.2°
Enters shadow 19:57:17 17° 119° (ESE) 1,410 5.0 -11.8°
